Regional Weather Roundup
Issued by NWS Wakefield, VA

Home | Current Version | Previous Version | Text Only | Print | Product List | Glossary Off
Versions: 1 2 3 4 5 6 7 8 9 10 11 12 13 14 15 16 17 18 19 20 21 22 23 24 25 26 27

000
ASUS41 KAKQ 190614
RWRAKQ

REGIONAL WEATHER ROUNDUP
NATIONAL WEATHER SERVICE WAKEFIELD VA
100 AM EST SUN FEB 19 2017

Note: "fair" indicates few or no clouds below 12,000 feet with no
significant weather and/or obstructions to visibility. * = Denotes
station may not report precipitation (e.g., rain,snow,etc.),
thunder or fog.

VAZ042-051-052>054-056-190700-
NORTHERN VIRGINIA

CITY           SKY/WX    TMP DP  RH WIND       PRES   REMARKS
WASH NATIONAL  CLOUDY    55  37  50 S5        29.79F
DULLES         CLOUDY    53  37  54 NE5       29.80S
FORT BELVOIR   CLOUDY    52  37  57 SE3       29.80R
QUANTICO       LGT RAIN  55  39  54 S5        29.80S
FREDERICKSBRG* DRIZZLE   58  40  51 S13       29.79R
STAFFORD*      LGT RAIN  56  38  50 CALM      29.82F
WARRENTON      DRIZZLE   56  34  43 CALM      29.77F
CULPEPER*      RAIN      53  44  70 CALM      29.78F
MANASSAS*      LGT RAIN  55  39  54 N9        29.79S
LEESBURG*      CLOUDY    55  37  50 SW5       29.81S
WINCHESTER     CLOUDY    59  32  36 S5        29.81R
FRONT ROYAL*   CLOUDY    61  37  41 S6        29.80S
LURAY*         LGT RAIN  54  45  71 CALM      29.82R
$$

VAZ048-049-060>072-079>083-190700-
CENTRAL AND SOUTH CENTRAL VIRGINIA

CITY           SKY/WX    TMP DP  RH WIND       PRES   REMARKS
RICHMOND       CLOUDY    57  36  45 S8        29.82F
CHESTERFIELD*  FAIR      63  28  27 SW6       29.84S
PETERSBURG*    CLOUDY    60  36  40 SW3       29.84S
HANOVER        CLOUDY    61  35  37 S6        29.83R
TAPPAHANNOCK*  CLOUDY    63  17  17 S5        29.81S
QUINTON*       FAIR      62  36  38 CALM      29.82R
CHARLOTTSVILLE CLOUDY    63  34  33 VRB6      29.80R
GORDONSVILLE*  CLOUDY    60  35  39 CALM      29.80R
ORANGE*        CLOUDY    59  34  38 CALM      29.81R
LOUISA*        MOCLDY    64  36  34 CALM      29.79F
BUMPASS*       CLOUDY    59  34  39 CALM      29.80F
FARMVILLE*     CLOUDY    60  33  36 SW6       29.82R
CREWE*         FAIR      59  38  45 S7        29.84R
FORT PICKETT*  FAIR      59  35  40 SW13      29.84S
CHASE CITY*    FAIR      56  39  54 SW5       29.87R
CLARKSVILLE*   FAIR      55  43  62 SW8       29.87S
SOUTH HILL*    PTCLDY    56  45  64 S10       29.92S
LAWRENCEVILLE* FAIR      59  42  53 SW12      29.85S
EMPORIA*       CLOUDY    61  37  41 S6        29.88S
$$

VAZ088>098-190700-
SOUTHEAST VIRGINIA

CITY           SKY/WX    TMP DP  RH WIND       PRES   REMARKS
NORFOLK        CLOUDY    64  36  35 SW14G23   29.85R
VIRGINIA BEACH CLOUDY    61  35  37 SW12      29.86R
NORFOLK NAVAL  CLOUDY    64  35  34 SW12      29.86R
WEST POINT*    CLOUDY    61  34  36 SW5       29.83S
SALUDA*        CLOUDY    62  36  38 SW8       29.80S
NEWPORT NEWS   MOCLDY    61  36  39 SW13      29.84R
LANGLEY AFB    CLOUDY    62  38  40 SW15      29.84R
FORT EUSTIS    CLOUDY    62  37  39 S3        29.82R
WILLIAMSBURG*  MOCLDY    64  37  36 CALM      29.85R
HR EXEC AP*    FAIR      61  36  39 SW9       29.85R
FRANKLIN*      CLOUDY    62  37  39 SW10      29.87S
US460-WAKEFLD  CLOUDY    62  35  36 SW6       29.85S
$$

VAZ020-022-025-037-045-190700-
WEST CENTRAL AND SOUTHWEST VIRGINIA

CITY           SKY/WX    TMP DP  RH WIND       PRES   REMARKS
STAUNTON*      CLOUDY    50  40  66 SE3       29.85S
WAYNESBORO*    CLOUDY    56  35  44 SW8       29.84S
HOT SPRINGS VA CLOUDY    48  28  46 W16       29.88S
LYNCHBURG      CLEAR     54  33  45 SW6       29.86R
DANVILLE       CLEAR     51  42  71 SW9       29.88S
SOUTH BOSTON*  FAIR      55  41  59 SW6       29.87S
MARTINSVILLE   PTCLDY    50  37  62 SW3       29.91S
ROANOKE        PTCLDY    54  34  46 W3        29.89R
BLACKSBURG     CLEAR     46  34  62 NW3       29.93R
DUBLIN*        CLOUDY    49  35  60 W7        29.92F
MARION*        CLOUDY    48  38  68 W12       29.96R
HILLSVILLE*    CLOUDY    49  38  65 NW9       29.91S
RICHLANDS*     CLOUDY    46  40  80 CALM      29.96R
WISE*          CLOUDY    45  45 100 CALM      29.97R
ABINGDON*      CLOUDY    48  44  85 W8        29.98R
$$

MDZ021>025-VAZ099-100-190700-
SOUTHERN MARYLAND AND THE DELMARVA PENINSULA

CITY           SKY/WX    TMP DP  RH WIND       PRES   REMARKS
PATUXENT RIVER CLOUDY    59  35  40 SW8       29.78S
BAY BRIDGE APT PTCLDY    57  34  41 W5        29.77F
LEONARDTOWN    CLOUDY    59  32  36 SW5       29.80R
DOVER          CLOUDY    57  40  52 NW8       29.74F
GEORGETOWN     PTCLDY    59  35  40 SW6       29.78R
EASTON         CLOUDY    58  32  37 N3        29.80F
CAMBRIDGE      CLOUDY    52  37  58 N6        29.76F
SALISBURY      CLOUDY    56  37  49 SW9       29.78S
OCEAN CITY     CLOUDY    60  35  39 W7        29.78S
WALLOPS ISLAND CLOUDY    63  35  35 SW9       29.80R
ACCOMACK*      CLOUDY    63  37  37 SW10      29.81R
$$

NCZ012>017-030>032-190700-
NORTH CENTRAL AND EASTERN NORTH CAROLINA

CITY           SKY/WX    TMP DP  RH WIND       PRES   REMARKS
ROANOKE RAPIDS CLOUDY    59  45  58 SW13      29.89S
RALEIGH        PTCLDY    53  43  68 SW12      29.92S
ELIZABETH CITY CLOUDY    59  42  53 SW13      29.89R
AHOSKIE*       LGT RAIN  55  46  70 CALM      29.90R
EDENTON*       CLOUDY    61  42  48 SW6       29.91R
CURRITUCK*     CLOUDY    60  41  50 SW10      29.89R
KILL DEVIL HLS NOT AVBL
MANTEO         CLOUDY    58  43  57 W10       29.90F
CAPE HATTERAS  CLOUDY    61  51  70 SW10      29.92F HAZE
TARBORO*       NOT AVBL
GOLDSBORO      MOCLDY    57  42  57 SW6       29.90F
WASHINGTON     PTCLDY    57  41  55 SW6       29.91F
GREENVILLE     PTCLDY    55  41  58 SW5       29.93S
NEW BERN       CLOUDY    59  43  55 S6        29.92F
WILMINGTON     MOCLDY    57  51  80 SW7       29.94F
$$

VAZ048-190700-
ELSEWHERE

CITY           SKY/WX    TMP DP  RH WIND       PRES   REMARKS
HARRISBURG PA  CLOUDY    49  35  58 CALM      29.76R
BALTIMORE      CLOUDY    57  33  40 W6        29.78R
ANNAPOLIS      CLOUDY    51  38  60 CALM      29.77R
ANDREWS AFB    CLOUDY    60  32  34 SW8       29.79R
PHILADELPHIA   CLOUDY    50  37  61 SW5       29.75S
HENDERSON NC   CLEAR     52  41  66 SW9       29.89F
GREENSBORO     PTCLDY    48  45  89 SW9       29.90F
ROCKY MOUNT    PTCLDY    57  43  59 SW6       29.91S
$$

VAZ100-190700-
MARINE

STATION/POSITION TIME  TEMP    WIND        PRES    WAVE   SWELL
                       AIR SEA DIR/SP/G            HT/PER HT/PER
                 (UTC) (F)     (DEG/KT/KT) (MB)    (FT/S) (FT/S)
CAPE MAY NJ      0536   49 40  300/  5/  6 1007.3F
LEWES DE         0536   61 40  250/ 10/ 14 1007.8R
OCEAN-CITY-INLET 0536   59 42  280/  8/ 11 1008.6F
WACHAPREAGUE VA  0536   59 44  240/  5/  7 1009.2S
THOMAS POINT MD  0600   62 40  300/  9/ 10   N/A
GOOSES REEF MD   0600   60 40   20/  8/ 14 1008.3    0
COVE POINT MD    0536   60      40/  6/  7 1008.2F
SOLOMONS ISLAND  0536   57 42  200/ 13/ 16   N/A
BISHOPS HEAD MD  0536   49 44  230/  6/  8 1008.8R
PINEY POINT MD   0548          360/  3/  4   N/A
POTOMAC MD       0600   52 43  240/  8/ 10 1007.8    0
CAMBRIDGE MD     0536   58 40  190/  4/  7 1007.8R
LEWISETTA VA     0536   60 43  240/  6/  8 1008.5R
RAPPAHANNOCK LGT 0548          200/ 16/ 18 1010.1R
YORK RVR RNG VA  0536   58     220/ 12/ 13 1009.3R
YORKTOWN VA      0536   63 45  230/ 13/ 17 1009.6R
JAMESTOWN VA     0600   61 47  210/  6/ 10   N/A
DOMINION TERM VA 0536   60     250/ 15/ 18 1010.6R
KIPTOPEKE VA     0548      46  220/ 10/ 12   N/A
CHES BAY BRIDGE  0548   60 45  240/ 15/ 18 1010.4R
CAPE HENRY VA    0548   63     230/ 12/ 18   N/A
WILLOUBY STN VA  0548   60     240/ 19/ 20 1011.3R
S CRANEY ISL VA  0548   63     220/  7/ 11 1010.6R
CAPE HENRY BUOY  0542      46                N/A     2/ 4
OFFSHORE WE BUOY 0551      47                N/A     3/ 5
64NM E OF VA BCH 0550   56 51  230/ 19/ 21 1010.8R   5/ 6   2/11
DUCK PIER NC     0548   57 47  220/ 11/ 13 1011.6R
44100 DUCK FRF   0535      47                N/A     2/ 5
44056 DUCK FRF   0530      48                N/A     1/11
OREGON INLET NC  0542   53 51  210/  8/ 10 1012.3S
HATTERAS NC      0548   60 56  220/  9/ 13 1012.7F
DIAMOND SHLS NC  0550   67 67  240/ 17/ 23 1013.0F   4/ 6   2/12
CAPE LOOKOUT NC  0500   60     220/  9/ 12 1013.6F
$$




USA.gov is the U.S. government's official web portal to all federal, state and local government web resources and services.